Location: Newark
(30.0333°N, 31.2167°E)
Time: 12:04:11
(UTC+00:00)

Tiros 1 - Pass Details

Date: 24 January 2020
Orbit: 631 x 664 km, 48.4° (Epoch: 24 February)

Event Time Altitude Azimuth Distance (km) Brightness Sun altitude
Rises 10:31:46 0° 245° (WSW) 2,919 10.9 40.3°
Reaches altitude 10° 10:34:10 10° 252° (WSW) 2,018 10.1 40.3°
Maximum altitude 10:38:35 43° 324° (NW) 905 8.0 40.1°
Drops below altitude 10° 10:43:05 10° 36° (NE) 2,044 9.4 39.9°
Sets 10:45:32 0° 43° (NE) 2,963 10.1 39.8°
